Creston
Thursday 12:35 AM
Temperature61° (61°/61°)
Dew Point61°
Relative Humidity100
%
Visibility10
mi
Pressure1014.2
mb
Wind DirectionS
180°
Wind Speed8
mph
Precipitation Today0.00"

Last 30 Observations

Time PresWx Temp DP Feels RH% Vsby Pressure Ceiling Direction Speed 1h Precip
12:15 AM 61° 61° 100
%
10
mi
1014.2
mb
S
180°
7
mph
0.00"
11:55 PM 61° 61° 100
%
10
mi
1014.6
mb
S
170°
7
mph
0.00"
11:35 PM 61° 61° 100
%
10
mi
1014.9
mb
3,600
ft
S
170°
7
mph
0.00"
11:15 PM 61° 61° 100
%
10
mi
1014.9
mb
3,600
ft
S
170°
5
mph
0.00"
10:55 PM 61° 61° 100
%
10
mi
1014.9
mb
S
170°
6
mph
0.00"
10:35 PM 61° 61° 100
%
10
mi
1014.9
mb
SSE
160°
6
mph
0.00"
10:15 PM 61° 59° 94
%
10
mi
1014.9
mb
SSE
160°
6
mph
0.00"
9:55 PM 63° 61° 94
%
10
mi
1014.9
mb
S
180°
5
mph
0.00"
9:35 PM 63° 63° 100
%
10
mi
1014.6
mb
S
170°
3
mph
0.00"
9:15 PM 63° 63° 100
%
1014.6
mb
S
170°
6
mph
0.00"
8:55 PM 63° 63° 100
%
10
mi
1014.6
mb
SSE
160°
7
mph
0.00"
8:35 PM 64° 64° 100
%
10
mi
1014.6
mb
S
180°
6
mph
0.00"
8:15 PM 64° 64° 100
%
10
mi
1014.6
mb
S
180°
7
mph
0.00"
7:55 PM 64° 64° 100
%
10
mi
1014.2
mb
SSW
200°
8
mph
0.00"
7:35 PM 66° 64° 94
%
10
mi
1014.6
mb
SW
220°
7
mph
0.00"
7:15 PM 68° 64° 88
%
10
mi
1014.6
mb
SW
230°
6
mph
0.00"
6:55 PM 70° 63° 78
%
10
mi
1014.2
mb
WSW
240°
9
mph
0.00"
6:35 PM 72° 63° 72°73
%
10
mi
1014.2
mb
SSW
210°
9
mph
0.00"
6:15 PM 73° 61° 73°65
%
10
mi
1014.2
mb
SSW
200°
14
mph
0.00"
5:55 PM 73° 63° 74°69
%
10
mi
1014.2
mb
4,300
ft
SW
220°
16
mph
0.00"
5:35 PM 75° 63° 75°65
%
10
mi
1014.2
mb
4,200
ft
SW
220°
11
mph
0.00"
5:15 PM 73° 63° 74°69
%
10
mi
1014.2
mb
SW
220°
10
mph
0.00"
4:55 PM 75° 63° 75°65
%
10
mi
1014.6
mb
4,400
ft
SSW
210°
11
mph
0.00"
4:35 PM 75° 63° 75°65
%
10
mi
1014.6
mb
SW
220°
13
mph
0.00"
4:15 PM 75° 63° 75°65
%
10
mi
1014.9
mb
SSW
200°
14
mph
0.00"
3:55 PM 75° 63° 75°65
%
10
mi
1014.9
mb
4,400
ft
SSW
210°
13
mph
0.00"
3:35 PM 73° 63° 74°69
%
10
mi
1015.2
mb
4,400
ft
SSW
210°
14
mph
0.00"
3:15 PM 75° 63° 75°65
%
10
mi
1015.6
mb
4,200
ft
SSW
210°
11
mph
0.00"
2:55 PM 75° 61° 75°61
%
10
mi
1015.6
mb
4,200
ft
SSW
210°
13
mph
0.00"
2:35 PM 75° 63° 75°65
%
10
mi
1015.9
mb
4,000
ft
S
190°
14
mph
0.00"